Reflectivity
-20 -19 10 -20 -20 -20 -20 -20 -20 -20 -20 -20 -20 -20 23 -20 -20 -16 -20 -20 -20 -20 11 -9 -20 -20 -16 -20 -20 -17 -15 -14 -20 -14 -20 -20 -20 -20 -20 -20 -20 -20 -20 -20 -20 -20 -20 -20 -20
-20 -20 -19 5 -20 -20 -20 -20 -20 -20 -20 -20 -20 -20 -20 -14 -20 -20 -20 -20 -20 -20 -20 -20 16 8 -18 -20 -20 -20 -20 -20 -20 -20 -20 -20 -20 -20 -20 -20 -20 -20 -20 -20 -20 -20 -20 -20 -20
-20 -20 -20 -3 -7 -20 -20 -20 -20 -20 -20 -20 -20 -20 -20 -20 -20 -20 -20 -20 -20 -20 -20 -20 -20 -8 -10 -20 -20 -20 2 1 -20 -20 -20 -20 -20 -20 -20 -20 -20 -20 -20 -20 -20 -20 -20 -20 -20
-20 -20 -20 -20 -20 -20 -20 -20 -20 -20 -20 -20 -20 -20 -20 -20 -20 -20 -20 -20 -20 -1 1 -20 -8 -12 -12 -18 -1 -8 -19 -20 -20 -20 -20 -20 -20 -20 -20 -20 -20 -20 -20 -20 -20 -20 -20 -20 -20
-20 -20 -20 -20 -20 -20 -20 -20 -20 -20 -20 -20 -20 -20 -20 -20 -20 -20 -20 -20 -20 1 12 -0 -17 -20 8 11 -14 -20 -20 -20 -20 -20 -20 -20 -20 -20 -20 -20 -20 -20 -20 -20 -20 -20 -20 -20 -20
-20 -20 -20 -20 -20 -20 -20 -20 -20 -20 -20 -20 -20 -20 -9 -20 -20 -20 -20 -20 -20 -4 8 6 -20 -1 3 -20 -20 -20 -20 -20 -20 -20 -20 -20 -20 -20 -20 -20 -20 -20 -20 -20 -20 -20 -16 -20 -20
-20 -20 -20 -20 -20 -20 -20 -20 -20 -20 -20 -20 -20 -20 -5 -17 -20 -20 -20 -20 -20 -9 6 6 5 13 -20 -20 -20 -20 -20 -20 -20 -20 -20 -20 -20 -20 -20 -20 -20 -20 -20 -20 -20 -20 -20 -20 -20
-20 -20 -20 -20 -20 -20 -20 -20 -20 -20 -20 -20 -20 -20 -20 -20 -20 -20 -20 -19 -2 -1 6 13 3 1 -20 -20 -20 -20 -20 -20 -20 -20 -20 -20 -20 -20 -20 -20 -20 -20 -20 -20 -20 -20 -20 -20 -20
-20 -20 -20 -20 -20 -20 -20 -20 -20 -20 -20 -20 -20 -20 -20 -20 -20 -20 -17 -3 4 6 5 3 0 -11 -13 -20 -20 -20 -20 -20 -20 -20 -20 -20 -20 -20 -20 -20 -20 -20 -20 -20 -20 -20 -20 -20 -20
-20 -20 -20 -20 -20 -20 -20 -20 -20 -20 -20 -20 -20 -20 -20 -20 -20 -20 -20 -20 -20 -16 -9 -20 -14 -20 -20 -20 -20 -20 -20 -20 -20 -20 -20 -20 -20 -20 -20 -20 -20 -20 -20 -20 -20 -19 -16 -20 -20
-20 -20 -20 -20 -20 -20 -20 -20 -20 -20 -20 -20 -20 -20 -20 -20 -20 -20 -20 -20 -20 -20 -20 -20 -2 -1 -20 -19 -20 -19 -20 -20 -20 -20 -20 -20 -20 -20 -20 -20 -20 -20 -20 -20 -20 -20 -20 -20 -20
-20 -20 -20 -20 -20 -20 -20 -20 -20 -20 -20 -20 -20 -20 -20 -20 -20 -20 -20 -20 -20 -20 -20 -20 -20 -2 -17 -20 -20 -20 -20 -20 -20 -20 -20 -20 -20 -20 -20 -20 -20 -20 -20 -20 -20 -20 -20 -20 -20
-20 -20 -20 -20 -20 -20 -20 -20 -20 -20 -20 -20 -20 -20 -20 -20 -20 -20 -20 -20 -20 -20 -20 -20 -20 -16 -3 1 -20 -20 -20 -20 -20 -20 -20 -20 -20 -20 -20 -20 19 31 -20 -20 -20 -20 -20 -20 -20
-20 -20 -20 -20 -20 -20 -20 -20 -20 -20 -20 -20 -20 -20 -20 -20 -20 -20 -20 -20 -20 -20 -20 -20 -20 -20 -20 -20 -20 -20 -20 -20 -20 -20 -20 -20 -20 -20 -18 -20 -20 -20 -20 -20 2 -15 -20 -20 -20
-20 -20 -20 -20 -20 -20 -20 -20 -20 -20 -20 -20 -20 -20 -20 -20 -20 -20 -20 -20 -20 -20 -20 -20 -20 -20 -20 -20 -20 -20 -20 -20 -20 -20 -20 -20 -20 -20 28 -7 -20 -19 -20 -16 -20 -20 -20 -20 -20
-20 -20 -20 -20 -20 -20 -20 -20 -20 -20 -20 -20 -20 -20 -20 -20 -20 -20 -20 -20 -20 -20 -20 -20 -20 -20 -20 -20 -20 -20 -20 -20 -20 26 -20 -20 -20 -20 -20 -20 0 -20 -20 -20 10 -20 -20 -20 -20
-20 -20 -20 -20 -20 -20 -20 -20 -20 -20 -20 -20 -20 -20 -20 -20 -20 -20 -20 -20 -20 -20 -20 -20 -20 -20 -20 -20 -20 -20 -20 -20 -20 -20 3 -20 -9 -2 -20 33 -20 -20 -20 16 -13 -20 -20 -20 -20
-20 -20 -20 -20 -20 -20 -20 -20 -20 -20 -20 -20 -20 -20 -20 -20 -20 -20 -20 -20 -20 -20 -20 -20 -20 -20 -20 -20 -20 -20 -20 -20 -20 -20 -20 -9 -1 -20 17 -20 -20 -20 -20 -20 -20 -20 -20 -20 -20
-20 -20 -20 -20 -20 -20 -20 -20 -20 -20 -20 -20 -20 -20 -20 -20 -20 -20 -20 -20 -20 -20 -20 -20 -20 -20 -20 -20 -20 -20 -20 -20 -1 -20 34 -20 -20 20 27 -20 -20 -20 -20 -20 -20 -20 -20 -20 -20
-20 -20 -20 -20 -20 -20 -20 -20 -20 -20 -20 -20 -20 -20 -20 -20 -20 -20 -20 -20 -20 -20 -20 -20 -20 -20 -20 -20 -20 -20 -20 -20 -2 11 -20 -20 -20 -20 13 9 -20 -20 -20 -20 -20 -20 -20 -20 -20
-20 -20 -20 -20 -20 -20 -20 -20 -20 -20 -20 -20 -20 -20 -20 -20 -20 -20 -20 -20 -20 -20 -20 -20 -20 -20 -20 -20 -20 -20 -20 -20 -20 -20 -20 -20 -20 -2 -20 -20 -20 -20 -20 -20 -20 -20 -20 -20 -20
-20 -20 -20 -20 -20 -20 -20 -20 -20 -20 -20 -20 -20 -20 -20 -20 -20 -20 -20 -20 -20 -20 -20 -20 -20 -20 -20 -20 -20 -20 -20 -20 -20 -20 -20 -20 -20 -20 -20 -20 -14 -20 -20 -20 -20 -20 -20 -20 -20
-20 -20 -20 -20 -20 -20 -20 -20 -20 -20 -20 -20 -20 -20 -20 -20 -20 -20 -20 -20 -20 -20 -20 -20 -20 -20 -20 -20 -20 -20 -20 -20 -20 -20 -20 -20 -20 -20 -20 -20 -20 -20 -20 -20 -20 -20 -20 -20 -20
-20 -20 -20 -20 -20 -20 -20 -20 -20 -20 -20 -20 -20 -20 -20 -20 -20 -20 -20 -20 -20 -20 -20 -20 -20 -20 -20 -20 -20 -20 -20 -20 -20 -20 -20 -20 -20 -20 -20 -20 -20 -20 -20 -20 -20 -20 -20 -20 -20
-20 -20 -20 -20 -20 -20 -20 -20 -20 -20 -20 -20 -20 -20 -20 -20 -20 -20 -20 -20 -20 -20 -20 -20 -20 -20 -20 -20 -20 -20 -20 -20 -20 -20 -20 -20 -20 -20 -20 -20 -20 -20 -20 -20 -20 -20 -20 -20 -20
-20 -20 -20 -20 -20 -20 -20 -20 -20 -20 -20 -20 -20 -20 -20 -20 -20 -20 -20 -20 -20 -20 -20 -20 -20 -20 -20 -20 -20 -20 -20 -20 -20 -20 -20 -20 -20 -20 -20 -20 -20 -20 -20 -20 -20 -20 -20 -20 -20
-20 -20 -20 -20 -20 -20 -20 -20 -20 -20 -20 -20 -20 -20 -20 -20 -20 -20 -20 -20 -20 -20 -20 -20 -20 -20 -20 -20 -20 -20 -20 -20 -20 -20 -20 -18 -20 -20 -20 -20 -20 -20 -20 -20 -20 -20 -20 -20 -20
-20 -20 -20 -20 -20 -20 -20 -20 -20 -20 -20 -20 -20 -20 -20 -20 -20 -20 -20 -20 -20 -20 -20 -20 -20 -20 -20 -20 -20 -20 -20 -20 -6 7 -20 10 7 -9 -20 -20 -20 -20 -20 -20 -20 -20 -20 -20 -20
-20 -20 -20 -20 -20 -20 -20 -20 -20 -20 -20 -20 -20 -20 -20 -20 -20 -20 -20 -20 -20 -20 -20 -20 -20 -20 -20 -20 -20 -20 -20 -20 -16 -18 -4 3 17 4 3 -20 -14 -20 -20 -20 -20 -20 -20 -20 -20
-20 -20 -20 -20 -20 -20 -20 -20 -20 -20 -20 -20 -20 -20 -20 -20 -20 -20 -20 -20 -20 -20 -20 -20 -20 -20 -20 -20 -20 -20 -20 -19 -0 41 -4 -20 16 2 13 9 -4 -20 -20 -20 -20 -20 -20 -20 -20
Wind_Speed
10 7 4 2 1 5 8 5 3 8 4 3 5 3 9 9 4 9 6 6 12 12 11 13 14 14 14 12 12 14 15 14 14 13 12 11 11 9 9 9 9 8 8 8 7 8 9 9 9
7 3 0 0 2 6 4 3 8 5 8 11 9 5 6 6 5 11 10 9 12 11 9 10 12 14 15 14 14 14 15 15 13 13 11 10 10 9 8 8 7 7 6 7 6 7 8 8 7
8 4 2 3 3 5 5 6 8 12 7 4 5 8 4 4 9 10 11 13 13 11 10 11 12 14 15 15 16 15 15 15 13 12 12 10 10 9 7 6 6 5 6 6 6 6 7 6 6
4 2 2 2 7 7 5 12 15 12 7 6 10 10 7 8 5 8 15 15 14 13 12 13 15 16 17 18 16 15 13 13 12 11 11 9 8 7 6 5 4 4 4 4 5 6 7 6 6
2 1 1 4 6 7 11 13 12 7 5 7 3 7 9 5 13 16 15 13 14 13 11 13 13 14 14 15 15 13 13 13 12 11 9 8 7 6 4 3 2 3 3 4 5 6 6 6 7
3 2 2 5 5 7 8 11 7 5 8 9 12 11 5 10 14 14 13 13 13 13 11 12 12 13 14 14 14 12 12 12 11 10 9 8 6 5 4 2 1 1 2 4 6 6 6 5 6
2 1 3 5 5 6 6 10 7 8 7 7 12 9 7 11 13 13 13 12 12 12 11 10 11 13 13 12 13 12 12 11 10 9 8 6 5 3 2 1 3 4 4 6 7 7 6 5 5
3 1 5 3 7 5 9 7 8 7 5 10 11 7 9 14 15 13 12 12 11 10 10 10 10 10 10 11 12 11 10 10 9 7 6 5 4 3 3 4 2 6 7 7 7 7 5 5 6
4 2 5 7 9 6 12 7 7 5 13 4 5 8 12 18 16 15 13 11 10 9 9 10 10 10 9 9 9 9 9 8 7 7 6 6 3 3 4 4 6 8 8 8 8 7 5 4 3
5 4 11 9 9 9 12 10 10 5 15 6 7 13 20 19 17 17 16 13 13 13 11 10 10 10 10 7 7 7 6 5 5 5 5 4 4 4 6 6 7 9 8 8 9 6 4 3 3
4 4 6 9 12 15 14 10 8 9 13 10 12 20 23 18 17 16 15 14 13 12 10 11 10 10 10 7 6 4 4 4 5 6 5 4 4 4 4 4 3 3 3 4 4 4 2 3 3
5 3 6 9 13 16 18 13 8 14 2 11 18 22 20 19 17 16 15 15 14 13 12 11 11 9 9 6 7 6 5 5 5 6 6 4 4 4 4 4 3 3 3 4 4 3 4 3 3
4 4 5 4 14 15 16 14 8 13 5 14 21 22 21 19 17 15 14 13 13 14 13 12 12 11 9 9 6 7 6 7 7 6 7 6 6 5 4 4 4 3 3 3 3 3 4 5 5
5 5 8 9 14 16 16 10 11 10 12 18 22 21 19 19 17 14 13 14 14 14 14 13 14 12 11 10 9 7 7 7 7 7 7 9 7 6 5 5 5 3 3 3 3 3 3 4 5
12 9 10 11 14 9 15 9 13 13 16 18 20 18 18 18 16 17 17 16 16 14 14 15 14 14 13 12 10 8 7 8 7 7 8 9 9 8 8 6 5 4 3 4 4 3 4 4 4
5 6 7 8 13 9 16 13 12 17 19 19 20 18 18 18 20 17 16 15 14 14 15 14 12 14 14 12 10 8 7 7 7 5 6 9 9 9 7 5 4 4 3 4 3 3 4 3 3
3 7 10 10 11 9 14 6 13 18 18 18 19 19 17 16 18 18 18 16 16 15 14 15 15 15 15 13 9 9 7 7 7 7 5 5 7 8 7 5 3 4 4 3 2 2 3 3 4
12 7 8 8 13 9 13 8 7 15 18 19 19 18 18 18 20 17 18 17 15 15 15 14 13 14 12 8 7 6 6 6 6 6 6 7 5 5 6 4 4 5 4 3 1 3 2 4 5
14 15 16 9 10 11 14 12 7 14 17 18 18 19 19 20 20 19 19 17 16 15 15 16 14 14 10 8 8 8 8 7 7 7 9 8 7 6 4 3 5 5 5 1 1 2 3 3 3
14 15 14 7 12 12 11 13 10 16 21 20 20 20 20 20 19 18 18 18 18 18 18 16 16 14 12 10 8 6 5 6 6 6 6 7 7 8 6 6 6 5 4 3 1 2 3 2 3
12 17 13 14 12 4 6 15 15 13 18 18 20 20 20 21 20 19 20 20 19 19 18 16 16 15 13 13 7 5 3 2 4 6 6 7 8 7 6 7 6 6 3 3 2 1 2 3 1
17 14 16 16 12 13 12 11 11 15 18 21 22 21 22 21 20 19 20 20 20 19 18 17 16 15 14 14 11 11 9 9 7 6 5 5 7 7 7 8 7 6 4 4 3 2 1 2 2
11 12 18 17 17 9 9 8 12 8 17 23 25 25 25 23 22 22 21 20 20 20 18 17 16 15 15 14 13 11 12 8 5 4 4 4 4 6 8 8 7 6 5 4 4 4 3 2 2
10 12 6 4 9 10 17 15 13 10 15 22 22 25 25 24 24 23 22 20 18 18 18 18 17 16 15 15 16 15 13 11 7 6 6 5 5 5 6 7 6 6 4 5 5 4 5 3 2
14 16 8 9 8 9 12 13 17 11 19 22 19 24 27 25 24 23 22 20 19 20 20 17 17 17 15 17 17 17 16 14 12 9 8 8 7 6 8 8 7 6 5 5 5 5 4 5 4
20 20 11 17 10 10 4 12 14 17 23 13 15 14 20 24 23 23 21 21 21 21 20 18 18 17 17 17 16 14 15 11 8 10 8 8 8 7 7 8 8 7 7 6 5 5 5 5 5
15 14 16 8 2 8 7 6 11 13 15 16 21 15 20 23 25 27 25 23 22 19 21 21 19 17 17 17 13 15 14 14 11 12 8 8 6 7 9 9 9 8 7 8 7 5 5 5 5
16 15 11 8 17 15 8 5 7 6 13 16 15 18 20 22 23 25 24 23 20 21 21 19 19 21 18 16 15 14 15 13 8 5 6 8 8 7 7 9 9 9 9 8 7 6 6 6 6
8 9 4 7 9 15 15 13 8 13 13 12 15 17 19 19 22 23 21 21 21 20 18 19 19 18 17 17 16 15 14 11 8 9 6 8 5 6 7 8 9 10 9 8 8 7 7 8 7
24 20 18 11 12 5 10 14 5 14 13 10 14 13 10 15 19 20 20 21 20 19 19 21 20 20 20 17 16 14 11 13 15 9 6 7 5 5 6 7 9 10 9 8 8 8 7 9 10
Wind_Direction
144 157 190 255 214 106 102 128 110 142 144 71 70 73 88 40 34 109 131 132 140 139 136 136 136 139 147 148 142 138 133 133 136 137 127 121 124 115 102 96 85 83 84 76 63 55 51 45 39
137 135 255 310 82 122 87 115 133 132 110 107 87 103 50 73 64 117 132 145 149 146 150 141 140 144 142 149 145 135 137 141 138 130 125 125 124 113 100 91 84 75 75 69 60 48 39 36 36
131 33 339 339 63 63 119 139 121 115 130 124 115 57 59 80 119 129 127 141 142 144 150 142 143 138 141 142 141 145 143 139 134 129 128 130 120 107 100 91 80 73 61 54 45 42 38 23 28
136 142 193 36 59 72 110 143 135 130 100 77 111 83 79 103 132 134 138 141 141 143 150 141 145 142 144 146 145 139 134 129 131 131 133 130 118 112 102 96 87 69 52 44 30 22 20 4 6
146 103 102 84 56 65 113 139 149 130 99 113 123 102 103 51 117 130 137 145 141 140 144 145 144 139 137 135 138 134 131 133 134 133 134 130 123 116 115 100 84 66 34 11 3 6 356 347 335
144 257 112 81 84 105 120 149 127 107 124 117 114 114 94 129 138 138 141 142 142 140 144 142 143 143 137 138 136 138 139 143 141 143 144 141 149 146 140 137 27 359 340 329 338 336 329 322 314
277 190 96 120 111 140 132 154 140 128 137 124 134 111 125 159 143 143 143 145 148 142 145 148 148 143 139 142 143 143 146 149 152 153 151 157 159 157 180 256 291 303 307 314 321 328 334 337 330
230 225 133 138 164 130 139 136 141 146 112 119 142 151 164 166 151 143 146 149 151 150 151 151 149 150 155 152 150 147 149 153 158 155 164 174 194 222 246 277 286 307 314 319 331 328 339 335 323
176 198 172 169 177 139 151 148 143 130 145 175 161 149 143 151 149 148 151 156 157 163 166 165 162 164 164 160 157 156 158 163 165 174 189 202 232 251 273 316 302 303 300 302 304 311 320 346 4
218 220 190 182 166 152 166 164 145 155 159 149 109 124 137 152 160 160 167 169 174 172 176 173 175 172 174 174 174 177 177 184 191 202 212 226 237 252 278 269 280 304 310 308 304 327 327 294 8
166 246 164 185 169 155 162 167 153 161 187 181 164 152 152 162 169 172 175 177 179 179 181 184 181 179 183 178 181 195 191 192 200 216 227 237 261 262 279 296 294 315 313 321 326 337 15 26 0
210 191 168 163 165 159 161 162 173 175 186 175 164 157 158 170 176 179 180 181 184 190 192 190 192 191 195 193 196 195 201 207 214 217 229 236 244 248 268 286 301 280 307 314 313 325 337 342 345
220 180 183 177 171 170 151 169 167 191 107 149 154 159 169 178 185 189 191 189 191 196 197 198 196 199 199 201 202 211 215 215 225 229 228 235 245 252 266 274 267 277 280 287 305 317 318 319 314
157 120 111 144 151 155 164 162 162 187 143 143 160 169 175 183 189 187 192 198 201 201 200 196 199 201 202 209 208 215 217 224 226 231 231 231 243 251 239 263 270 259 248 280 284 296 297 301 300
140 119 108 138 153 148 156 161 209 166 160 158 171 176 182 190 186 194 195 200 201 203 201 202 200 201 206 210 212 218 223 223 228 232 232 234 226 240 251 252 252 270 252 270 273 288 276 287 283
136 154 170 168 173 151 191 214 194 170 169 175 180 185 190 190 197 201 201 207 202 205 202 205 203 202 208 211 212 219 220 229 240 255 245 238 231 232 235 240 239 231 232 248 269 300 284 290 290
186 185 199 167 195 155 203 221 194 178 183 184 187 189 195 194 205 206 207 209 206 205 203 205 204 206 206 212 215 220 225 232 243 245 238 241 229 222 230 233 226 197 216 243 240 266 291 300 295
183 202 197 181 181 190 201 224 156 190 190 193 196 197 199 200 207 206 212 213 212 210 209 208 206 213 213 214 216 221 228 232 236 240 247 250 244 230 211 210 173 197 195 182 204 290 297 313 320
191 207 192 171 170 189 221 253 219 196 207 204 203 203 205 210 210 209 211 212 212 214 211 211 207 210 204 201 209 220 224 228 239 244 252 243 244 234 211 167 166 182 200 153 214 298 311 303 323
202 211 203 150 162 199 210 243 241 203 216 209 205 209 211 214 213 213 215 211 210 211 213 210 213 210 211 210 212 218 211 229 241 239 230 227 228 214 206 181 179 183 157 163 241 295 306 293 11
212 208 189 194 179 160 193 245 239 218 219 217 219 218 216 217 213 212 214 212 209 212 210 210 211 213 214 214 204 180 160 183 206 217 217 215 221 216 201 187 179 173 180 187 179 297 315 315 62
208 214 202 184 176 227 199 261 228 221 213 219 221 218 219 217 218 216 211 212 210 211 208 208 209 211 214 206 207 207 214 221 218 206 206 208 207 197 191 188 179 174 177 172 163 158 256 268 309
224 181 195 194 197 207 214 244 258 201 219 220 220 221 220 218 214 215 213 212 211 209 206 206 206 210 211 204 209 203 218 224 209 181 183 204 184 200 196 189 178 176 187 172 176 168 203 215 279
146 125 94 144 201 221 219 216 249 207 219 227 222 221 222 217 216 217 214 210 211 207 206 203 202 208 205 206 208 207 210 210 200 186 189 192 186 180 186 183 182 184 185 187 179 190 206 207 233
197 171 168 192 198 226 228 217 245 245 232 235 231 217 217 212 215 215 210 204 206 204 201 200 200 209 205 207 208 209 207 205 199 189 195 184 190 196 194 190 190 189 194 195 185 197 198 203 216
198 199 202 206 205 213 179 220 237 237 250 248 253 237 219 216 212 215 206 202 202 202 200 199 199 205 205 205 208 208 203 206 197 198 194 200 195 198 190 196 196 195 197 192 197 211 222 215 230
177 209 215 221 21 225 190 241 274 249 249 245 240 224 215 213 211 210 206 206 205 198 201 200 199 202 207 206 204 204 199 207 202 191 189 193 195 190 188 194 191 191 195 199 198 223 233 240 237
206 175 189 213 217 229 203 235 233 221 244 241 239 224 227 217 209 209 208 205 203 202 203 199 197 202 202 203 206 203 203 198 176 204 168 195 189 205 190 182 194 197 203 205 213 214 214 223 238
171 183 210 235 233 230 234 232 211 232 244 246 242 231 232 218 210 205 204 201 203 204 202 202 202 200 200 201 199 200 197 175 139 168 199 153 182 183 205 199 204 209 206 211 217 233 241 236 243
222 214 208 214 191 225 254 224 185 232 240 243 251 250 249 219 207 204 200 200 202 203 203 204 203 202 202 199 196 192 164 149 166 187 188 151 153 167 213 218 220 218 216 217 224 237 245 239 241